CYULCYGP

Guest
Details From CYUL - Montreal Pierre E Trudeau Intl
To CYGP - Gaspe
Flight Number -
Tags Generated
Created
Modified
Stats Distance 434 nm / 803 km
Max Altitude 0 ft / 0 m
Waypoints 3
Social Downloads 0
Likes 0
Share VATSIM

Download

Looking for another format? Having issues loading an existing format? Contact us
Advertisement - Login to hide

Notes

Generated

Route

CYUL YGP CYGP

ID Type Via Altitude Latitude Longitude Leg Dist Tot Dist Heading (true) Name
O CYUL APT - 0 ft / 0 m 45.46250˚ -73.76500˚ - 0 nm - -
YGP VOR - 0 ft / 0 m 48.76317˚ -64.40481˚ 430 nm 430 nm 59° / 66° GASPE VOR-DME
O CYGP APT - 0 ft / 0 m 48.77463˚ -64.48789˚ 3 nm 433 nm 282° / 282° -

Altitude Profile

Advertisement - Login to hide

Weather


0- 5 10 15 20 25 30 35+ Temperature / ° C

Clouds and Precipitation
Forecast for 2018-05-25 00:00 UTC. Updated 2 hours ago

Ground ~20,000 ft ~40,000 ft Winds

CYUL

Details ICAO CYUL (YUL)
Name Montreal Pierre E Trudeau Intl
Region Canada
Timezone America/Montreal (UTC-4.0)
Stats Elevation 117 ft / 36 m (AMSL)
Location 45.467269° -73.744028°
Runways 3
Magnetic Variation 14.292° W

METAR

CYUL 250100Z 20010KT 15SM FEW240 21/04 A2992 RMK CI2 SLP133 DENSITY ALT 800FT

Decode

TAF

TAF CYUL 242339Z 2500/2524 23012KT P6SM FEW240 BECMG 2510/2512 24015G30KT FM251800 24020G30KT P6SM BKN180 FM252100 24020G30KT P6SM BKN120 BECMG 2522/2524 23012KT RMK NXT FCST BY 250300Z

Decode

Departure Runways

ID Width Length Bearing (true) Bearing (mag) Surface Threshold Offset Overrun Length
06L 200 ft / 61 m 11,020 ft / 3,359 m 42.62° 56.91° Asphalt 0 ft / 0 m 0 ft / 0 m
06R 200 ft / 61 m 9,706 ft / 2,958 m 41.23° 55.52° Asphalt 0 ft / 0 m 0 ft / 0 m
10 200 ft / 61 m 6,831 ft / 2,082 m 87.45° 101.74° Asphalt 0 ft / 0 m 0 ft / 0 m
24L 200 ft / 61 m 9,706 ft / 2,958 m 221.25° 235.54° Asphalt 0 ft / 0 m 0 ft / 0 m
24R 200 ft / 61 m 11,020 ft / 3,359 m 222.64° 236.93° Asphalt 0 ft / 0 m 0 ft / 0 m
28 200 ft / 61 m 6,831 ft / 2,082 m 267.47° 281.76° Asphalt 0 ft / 0 m 0 ft / 0 m

CYGP

Details ICAO CYGP (YGP)
Name GASPE
Region Canada
Timezone America/Montreal (UTC-4.0)
Stats Elevation 108 ft / 33 m (AMSL)
Location 48.775278° -64.478611°
Runways 1
Magnetic Variation 18.506° W

METAR

CYGP 250100Z 33005KT 280V010 15SM OVC100 05/M01 A2988 RMK AS8 SLP120

Decode

TAF

TAF CYGP 241941Z 2420/2508 07015KT P6SM FEW040 TEMPO 2420/2502 BKN040 BECMG 2500/2502 VRB03KT FM250200 VRB03KT P6SM -SHRA OVC040 RMK NXT FCST BY 250200Z

Decode

Destination Runways

ID Width Length Bearing (true) Bearing (mag) Surface Threshold Offset Overrun Length
11 150 ft / 46 m 4,488 ft / 1,368 m 83.95° 102.46° Asphalt 0 ft / 0 m 0 ft / 0 m
29 150 ft / 46 m 4,488 ft / 1,368 m 263.96° 282.47° Asphalt 0 ft / 0 m 0 ft / 0 m

Approach Navaids

Runway Type Ident Frequency Range Bearing (true) Bearing (mag) Slope Elevation
11 Localiser IGP 110.30 MHz 18 nm / 33 km 83.32° 101.83° - 108 ft / 33 m (AMSL)

Popular Alternatives